Location: Cran-Gévrier
(45.9039°N, 6.1012°E)
Time: 21:03:30
(UTC+00:00)

Cosmos 1943 Rocket - Pass Details

Date: 09 February 2023
Orbit: 811 x 844 km, 71.0° (Epoch: 22 March)

Event Time Altitude Azimuth Distance (km) Brightness Sun altitude
Rises 20:24:26 0° 328° (NNW) 3,411 6.0 -37.0°
Reaches altitude 10° 20:26:59 10° 322° (NW) 2,470 5.2 -37.4°
Enters shadow 20:30:03 30° 302° (WNW) 1,482 3.9 -37.9°
